Regional Weather Roundup
Issued by NWS

Home | Current Version | Previous Version | Text Only | Print | Product List | Glossary On
Versions: 1 2 3 4 5 6 7 8 9 10 11 12 13 14 15 16 17 18 19 20 21 22 23 24 25 26 27 28 29 30 31 32 33 34 35 36 37 38 39 40 41 42 43 44 45 46 47 48 49 50
000
ASUS43 KLMK 301510
RWRKY
KENTUCKY REGIONAL WEATHER ROUNDUP
NATIONAL WEATHER SERVICE LOUISVILLE KY
1100 AM EDT THU MAR 30 2017

NOTE "FAIR" INDICATES FEW OR NO CLOUDS BELOW 12,000 FEET
WITH NO SIGNIFICANT WEATHER AND/OR OBSTRUCTIONS TO VISIBILITY.

KYZ001>023-026-027-061>063-070>075-301600-
WESTERN AND SOUTH CENTRAL KENTUCKY

CITY           SKY/WX    TMP DP  RH WIND       PRES   REMARKS
PADUCAH        CLOUDY    70  53  54 S14G24    29.64F
HENDERSON      CLOUDY    72  57  60 S15G25    29.64S
OWENSBORO      CLOUDY    72  60  66 S17       29.69F
HOPKINSVILLE   CLOUDY    72  58  62 S9G18     29.71R
BOWLING GREEN  CLOUDY    72  59  63 S17       29.74F
GLASGOW        CLOUDY    72  57  60 S12G21    29.77R
$$

KYZ024-025-028>034-038-045-046-053-301600-
NORTH CENTRAL KENTUCKY

CITY           SKY/WX    TMP DP  RH WIND       PRES   REMARKS
LOUISVILLE/SDF CLOUDY    71  54  54 S12       29.72F
LOUISVILLE/LOU CLOUDY    70  56  61 S9        29.76F
FORT KNOX      CLOUDY    70  58  66 S20       29.72F
$$

KYZ035>037-039>044-047>052-055>060-089>105-301600-
NORTHEAST KENTUCKY

CITY           SKY/WX    TMP DP  RH WIND       PRES   REMARKS
LEXINGTON      CLOUDY    68  54  60 S14G22    29.80F
COVINGTON      CLOUDY    63  54  72 SE5       29.79F
FRANKFORT      CLOUDY    66  52  60 SE10      29.76F
$$

KYZ054-064>069-076>088-106>120-301600-
SOUTHEAST KENTUCKY

CITY           SKY/WX    TMP DP  RH WIND       PRES   REMARKS
JACKSON        PTSUNNY   68  51  54 CALM      29.90F
LONDON         CLOUDY    70  51  51 S12G18    29.88F
SOMERSET       CLOUDY    68  54  60 S7        29.85F
MIDDLESBORO    CLOUDY    68  52  55 S5        29.95S
MONTICELLO     CLOUDY    70  54  56 SE17      29.83F
$$




USA.gov is the U.S. government's official web portal to all federal, state and local government web resources and services.